Regional Weather Roundup
Issued by NWS

Home | Current Version | Previous Version | Graphics & Text | Print | Product List | Glossary On
Versions: 1 2 3 4 5 6 7 8 9 10 11 12 13 14 15 16 17 18 19 20 21 22 23 24 25 26 27 28 29 30 31 32 33 34 35 36 37 38 39 40 41 42 43 44 45 46 47 48 49 50
000
ASUS43 KLSX 261607
RWRMO

WEATHER SUMMARY FOR MISSOURI
NATIONAL WEATHER SERVICE SPRINGFIELD MO
1000 AM CST FRI DEC 26 2014

NOTE: "FAIR" INDICATES FEW OR NO CLOUDS BELOW 12,000 FEET WITH NO
       SIGNIFICANT WEATHER AND/OR OBSTRUCTIONS TO VISIBILITY.
       CURRENT SKY AND/OR WEATHER CONDITIONS ARE NOT AVAILABLE FOR
       CHILLICOTHE AND FARMINGTON.

MOZ001>031-035>038-043-044-053-054-261700-
...NORTHERN AND WESTERN MISSOURI...

CITY           SKY/WX    TMP DP  RH WIND       PRES   REMARKS
KANSAS CTY INT CLOUDY    47  37  68 S7        29.94R
KANSAS C DTWN  CLOUDY    50  39  66 SW9       29.95R
LEE`S SUMMIT   CLOUDY    44  37  76 S9        29.96R
ST JOSEPH      CLOUDY    35  31  85 N7        29.97R WCI  29
CHILLICOTHE      N/A     48  37  65 S12       29.97R
KIRKSVILLE     CLOUDY    47  38  71 S13       29.98R

$$
MOZ066>068-077>081-088>096-101>105-261700-
...SOUTHWEST MISSOURI...

CITY           SKY/WX    TMP DP  RH WIND       PRES   REMARKS
SPRINGFIELD    MOSUNNY   50  40  68 S16       30.02S
JOPLIN         CLOUDY    54  44  69 S16       29.99R

$$
MOZ032>034-039>042-045>050-055>058-069>072-261700-
...CENTRAL MISSOURI...

CITY           SKY/WX    TMP DP  RH WIND       PRES   REMARKS
COLUMBIA       PTSUNNY   51  41  68 S20       30.03R
JEFFERSON CITY PTSUNNY   52  40  63 S10       30.05R
ROLLA          SUNNY     48  40  73 S16G24    30.06R
SEDALIA        CLOUDY    50  40  68 S16       30.01R
WHITEMAN AFB   CLOUDY    49  41  73 S15       29.99R
WARRENSBURG    CLOUDY    46  37  71 S12       29.99R
OSAGE BEACH    MOSUNNY   54  41  62 SW14G21   30.04R

$$
MOZ051-052-059>065-261700-
...EAST CENTRAL MISSOURI...

CITY           SKY/WX    TMP DP  RH WIND       PRES   REMARKS
ST LOUIS INTL  PTSUNNY   50  39  66 S12G18    30.10R
SPIRIT OF STL  MOSUNNY   50  39  66 SW13      30.08R
ST CHARLES     SUNNY     48  40  73 S12       30.09R

$$
MOZ072>076-082>087-097>100-106>115-261700-
...SOUTH CENTRAL AND SOUTHEAST MISSOURI...

CITY           SKY/WX    TMP DP  RH WIND       PRES   REMARKS
CAPE GIRARDEAU PTSUNNY   48  40  73 S12G18    30.21S
FARMINGTON     SUNNY     46  37  71 SE12G17   30.16R
POPLAR BLUFF   CLOUDY    46  37  71 S7        30.20R
WEST PLAINS    MOSUNNY   43  38  82 S12       30.13R

$$



USA.gov is the U.S. government's official web portal to all federal, state and local government web resources and services.